This demonstration page uses our WeatherBlox Daily Observations layout. Learn more.

Left ArrowRight Arrow

Hourly Observations for July 7, 2022

Temp ( °F °C ) Dew Point ( °F °C ) Humidity (%) Winds ( mph kmh ) Pressure ( in mb ) Visibility ( mi km ) Precip ( " mm )
12:59 am 00:59 Mostly Cloudy 80 26.7 71 21.7 74 74 WSW 8 13 29.92 1013 10 16 0.00 0.00
1:59 am 01:59 Mostly Cloudy 79 26.1 71 21.7 77 77 W 7 11 29.90 1013 10 16 0.00 0.00
2:59 am 02:59 Mostly Cloudy 79 26.1 71 21.7 77 77 WSW 6 9 29.90 1012 10 16 0.00 0.00
3:59 am 03:59 Mostly Cloudy 79 26.1 71 21.7 77 77 SW 3 6 29.91 1013 10 16 0.00 0.00
4:59 am 04:59 Mostly Cloudy 77 25 72 22.2 85 85 WNW 7 11 29.92 1013 10 16 0.00 0.00
5:59 am 05:59 Mostly Cloudy 78 25.6 72 22.2 82 82 W 5 7 29.92 1013 10 16 0.00 0.00
6:59 am 06:59 Mostly Cloudy 78 25.6 71 21.7 79 79 SW 6 9 29.92 1013 10 16 0.00 0.00
7:59 am 07:59 Mostly Cloudy 80 26.7 71 21.7 74 74 SW 8 13 29.93 1013 10 16 0.00 0.00
8:59 am 08:59 Mostly Cloudy 83 28.3 71 21.7 67 67 SW 8 13 29.93 1014 10 16 0.00 0.00
9:59 am 09:59 Mostly Cloudy 83 28.3 72 22.2 70 70 W 9 15 29.93 1014 10 16 0.00 0.00
10:59 am 10:59 Mostly Cloudy 85 29.4 72 22.2 65 65 W 10 17 29.93 1014 10 16 0.00 0.00
11:59 am 11:59 Mostly Cloudy 85 29.4 72 22.2 65 65 W 8 13 29.94 1014 10 16 0.00 0.00
12:59 pm 12:59 Mostly Cloudy 88 31.1 73 22.8 61 61 WNW 9 15 29.95 1014 10 16 0.00 0.00
1:59 pm 13:59 Mostly Cloudy 88 31.1 73 22.8 61 61 WNW 8 13 29.94 1014 10 16 0.00 0.00
2:59 pm 14:59 Mostly Cloudy 87 30.8 74 23.3 64 64 N 8 13 29.94 1014 10 16 0.00 0.00
3:59 pm 15:59 Mostly Cloudy 88 31.1 76 24.4 68 68 N 5 7 29.92 1013 9 14 0.00 0.00
4:59 pm 16:59 Mostly Cloudy 88 31.1 76 24.4 68 68 NNE 15 24 29.93 1014 7 11 0.00 0.00
5:59 pm 17:59 Mostly Cloudy 82 27.8 75 23.9 79 79 NNE 15 24 29.92 1013 8 13 0.00 0.00
6:59 pm 18:59 Mostly Cloudy 81 27.2 74 23.3 79 79 NNE 14 22 29.94 1014 9 14 0.00 0.00
7:59 pm 19:59 Mostly Cloudy 79 26.1 75 23.9 88 88 NE 14 22 29.95 1014 8 13 0.00 0.00
8:59 pm 20:59 Mostly Cloudy 77 25 74 23.3 90 90 E 10 17 29.96 1015 8 13 0.00 0.00
9:59 pm 21:59 Mostly Cloudy 76 24.4 73 22.8 91 91 E 8 13 29.98 1015 7 11 0.00 0.00
10:59 pm 22:59 Mostly Cloudy 77 25 72 22.2 85 85 ESE 8 13 29.99 1016 10 16 0.00 0.00
11:59 pm 23:59 Cloudy 76 24.4 71 21.7 85 85 E 7 11 30.01 1016 10 16 0.00 0.00

Powered by AerisWeather